Home > Weather > Biratnagar > Past weeks

Flag for Nepal Weather for the Past 2 Weeks in Biratnagar, Nepal

Now
57 °F

Scattered clouds.


Feels Like: 57 °F
Forecast: 56 / 78 °F
Wind: 5 mph from West

Location: Kathmandu Airport

Current Time: Feb 9, 2016 at 6:51:44 PM

Latest Report: Feb 9, 2016 at 6:05 PM


Visibility: 4 mi

Pressure: 30.01 "Hg

Humidity: 67%

Dew point: 46 °F

Location of BiratnagarLocation

Historic Weather in Biratnagar — Graph

°F

Biratnagar Temperature Yesterday

Maximum temperature yesterday: 61 °F (at 1:35 PM)
Minimum temperature yesterday: 50 °F (at 3:35 AM)
Average temperature yesterday: 54 °F

High & Low Weather Summary for the Past Weeks

 TemperatureHumidityPressure
High72 °F (Feb 7, 2:05 PM)100% (Jan 26, 4:35 AM)30.24 "Hg (Jan 26, 4:35 AM)
Low36 °F (Jan 26, 7:35 AM)26% (Feb 1, 1:05 PM)29.95 "Hg (Jan 27, 2:35 PM)
Average52 °F73%30.08 "Hg
* Reported Jan 25 5:05 PM — Feb 9 5:05 PM, Biratnagar, Weather by CustomWeather, © 2016

Note: Actual official high and low records may vary slightly from our data, if they occured in-between our weather recording intervals... More about our weather records

Advertising

Biratnagar Weather History for the Previous 24 Hours

 ConditionsComfort  
Time TempWeatherWind HumidityBarometerVisibility
5:05 PM
Tue, Feb 9
61 °FScattered clouds.6 mph55%30.01 "Hg4 mi
4:05 PM61 °FScattered clouds.9 mph52%30.01 "Hg4 mi
3:35 PM61 °FPassing clouds.8 mph52%30.01 "Hg4 mi
3:05 PM63 °FScattered clouds.9 mph52%30.01 "Hg4 mi
2:35 PM63 °FPassing clouds.7 mph49%30.04 "Hg4 mi
2:05 PM64 °FPassing clouds.9 mph49%30.04 "Hg4 mi
1:35 PM64 °FPassing clouds.9 mph46%30.04 "Hg4 mi
1:05 PM64 °FPassing clouds.6 mph49%30.07 "Hg4 mi
12:35 PM63 °FPassing clouds.6 mph56%30.07 "Hg4 mi
11:35 AM61 °FHaze.3 mph59%30.12 "Hg3 mi
11:05 AM59 °FHaze.3 mph63%30.12 "Hg3 mi
10:35 AM57 °FHaze.3 mph67%30.15 "Hg2 mi
10:05 AM54 °FFog.No wind77%30.15 "Hg2 mi
9:35 AM52 °FFog.No wind82%30.15 "Hg1 mi
9:05 AM50 °FFog.No wind88%30.15 "Hg1 mi
8:35 AM48 °FFog.2 mph87%30.15 "Hg1 mi
8:05 AM45 °FFog.2 mph100%30.12 "Hg1 mi
7:35 AM45 °FFog.2 mph93%30.12 "Hg1 mi
7:05 AM43 °FFog.2 mph100%30.09 "Hg1 mi
6:35 AM43 °FFog.No wind100%30.09 "Hg1 mi
6:05 AM45 °FFog.No wind93%30.07 "Hg1 mi
5:35 AM45 °FFog.2 mph93%30.07 "Hg2 mi
4:35 AM45 °FFog.3 mph93%30.07 "Hg2 mi
3:35 AM46 °FFog.3 mph93%30.07 "Hg3 mi
2:35 AM46 °FFog.2 mph93%30.09 "Hg3 mi
1:35 AM46 °FFog.3 mph93%30.09 "Hg3 mi
12:35 AM48 °FFog.2 mph87%30.09 "Hg3 mi
12:05 AM48 °FFog.No wind87%30.09 "Hg3 mi
11:35 PM
Mon, Feb 8
50 °FFog.No wind88%30.09 "Hg3 mi
11:05 PM50 °FFog.3 mph88%30.12 "Hg3 mi
10:35 PM50 °FFog.3 mph88%30.12 "Hg3 mi
10:05 PM52 °FPassing clouds.2 mph82%30.12 "Hg4 mi
9:35 PM52 °FPartly cloudy.2 mph82%30.12 "Hg4 mi
9:05 PM52 °FPartly cloudy.3 mph77%30.12 "Hg4 mi
8:35 PM54 °FPartly cloudy.2 mph77%30.12 "Hg4 mi
8:05 PM54 °FPartly cloudy.2 mph72%30.12 "Hg4 mi
7:35 PM54 °FPartly cloudy.3 mph77%30.09 "Hg4 mi
7:05 PM54 °FThundershowers. Passing clouds.6 mph82%30.09 "Hg3 mi
6:35 PM55 °FThunderstorms. Partly cloudy.6 mph77%30.07 "Hg3 mi
6:05 PM55 °FThunderstorms. Scattered clouds.2 mph77%30.07 "Hg3 mi
Weather by CustomWeather, © 2016

See weather overviewHow to use our weather pages